ONEWEB-0131 (47277 NORAD) Tracking and Keplerian Element Data

This shows tracking and keplerian element data for the satellite.

Feedback or suggestion? Click here.




ElementValue
Catalog47277
NameONEWEB-0131
Epoch Orbit1704
Epoch Day106.25002315
Epoch Year2021
RAAN5.9299
Inclination87.9348
Eccentricity0.0001039
Argument of Perigee84.31
Mean Anonmoly76.6768
Mean Motion13.23095805
Decay Rate-0.00016154
L11 47277U 20100V 21106.25002315 -.00016154 00000-0 -38481-1 0 9992
L22 47277 87.9348 5.9299 0001039 84.3100 76.6768 13.23095805 17049

Live tracking and technical data element details for ONEWEB-0131 (NORAD 47277). ONEWEB-0131 can be tracked NOW for your location showing map with azimuth and elevation plus other details from your city location.

Track the satellite on the map from your city or location and see movement details for azimuth, elevation, latitude, longitude, range, height, and movement on the map or in text.







IsCatalogInMostPopularTable: catalog: 47277, numindb: 36
Update: records affected: 1



GetName: 47277 ONEWEB-0131

Hit Count: updated at: Fri, 16 Apr 2021 10:52:51 GMT